Overview Statistics Trail Chart Weather Telemetry Raw packets
 

This is the latest recevied weather packets stored in our database for station/object EA2KR-10. If no packets are shown the sender has not sent any weather packets the latest 10 day(s).

<< 8 9 10 11 12 13 14 >>
Time Temp. Humidity Pressure Rain* Wind** Luminosity Snow
1788190406 38.33° C 24% 1032.7 hPa - - - -
1788188606 38.33° C 24% 1032.8 hPa - - - -
1788186806 37.78° C 25% 1032.9 hPa - - - -
1788185006 37.22° C 26% 1033.2 hPa - - - -
1788183218 36.67° C 26% 1033.1 hPa - - - -
1788181405 36.11° C 29% 1033.3 hPa - - - -
1788179605 35° C 30% 1033.5 hPa - - - -
1788177805 33.89° C 31% 1033.5 hPa - - - -
1788176005 32.78° C 33% 1033.6 hPa - - - -
1788174205 31.11° C 35% 1033.6 hPa - - - -
1788172405 29.44° C 37% 1033.7 hPa - - - -
1788170605 27.78° C 39% 1033.8 hPa - - - -
1788168804 26.11° C 42% 1033.7 hPa - - - -
1788167004 24.44° C 43% 1033.6 hPa - - - -
1788165591 22.78° C 44% 1033.6 hPa - - - -
1788165204 22.78° C 44% 1033.6 hPa - - - -
1788163404 21.67° C 45% 1033.4 hPa - - - -
1788161604 20.56° C 45% 1033.4 hPa - - - -
1788159804 20° C 45% 1033.2 hPa - - - -
1788158006 20° C 45% 1032.9 hPa - - - -
1788156206 20° C 45% 1032.7 hPa - - - -
1788154406 20° C 45% 1032.4 hPa - - - -
1788152606 20.56° C 45% 1032.3 hPa - - - -
1788150806 20.56° C 44% 1032.3 hPa - - - -
1788149006 20.56° C 44% 1032.3 hPa - - - -

* Rain since midnight (hover to see other rain measurements)
** Current wind speed in m/s (hover to see current wind gust speed)